[[{"header":{"parameterUnit":"m.s-1","parameterCategory":2,"la1":30.2991,"la2":30.254,"lo1":-89.0895,"lo2":-89.0444,"dy":0.0017,"dx":0.0017,"nx":28,"ny":28,"refTime":"2023-10-26T03:00:00:Z","depth":"0","parameterNumber":2,"parameterNumberName":"U-component_of_CURRENTS"},"data":[0,0,0,0,0,0,0,0,0,0,0,0,0,0,0,0,0,0,0,0,0,0,0,0,0,0,0,0,0,0,0,0,0,0,0,0,0,0,0,0,0,0,0,0,0,0,0,0,0,0,0,0,0,0,0,0,0,0,-0.1904,-0.1903,0,-0.1839,-0.1838,-0.1837,-0.1779,-0.1779,-0.1778,-0.1778,-0.1716,-0.1714,-0.1713,0,0,0,0,0,0,0,0,0,0,0,0,0,-0.1983,-0.1982,-0.1904,-0.1903,-0.1902,-0.1839,-0.1838,-0.1837,-0.1779,-0.1779,-0.1778,-0.1777,-0.1716,-0.1715,-0.1713,0,0,0,0,0,0,0,0,0,0,0,0,0,-0.1935,-0.1981,-0.1904,-0.1867,-0.1863,-0.1839,-0.1838,-0.1837,-0.178,-0.1779,-0.1778,-0.1777,-0.1716,-0.1715,-0.1713,-0.172,0,0,-0.1708,-0.1707,0,0,0,0,0,0,0,0,-0.1938,-0.1932,-0.1873,-0.1869,-0.1865,-0.1817,-0.1843,-0.1798,-0.178,-0.181,-0.1778,-0.1777,-0.1751,-0.1747,-0.1735,-0.1718,-0.1715,-0.1708,-0.1707,-0.1706,-0.1706,0,0,0,0,0,0,0,-0.1942,-0.1935,-0.1877,-0.1872,-0.1867,-0.1855,-0.1847,-0.1834,-0.1786,-0.1807,-0.1803,-0.1798,-0.1749,-0.1737,-0.1733,-0.1714,-0.1708,-0.1706,-0.1705,-0.1705,-0.1712,-0.1713,0,0,0,0,0,0,-0.1952,-0.1938,-0.1879,-0.1875,-0.1901,-0.1854,-0.1845,-0.1833,-0.1786,-0.1778,-0.1799,-0.1796,-0.174,-0.1735,-0.1731,-0.1758,-0.1706,-0.1705,-0.1704,-0.1711,-0.1712,-0.1714,0,0,0,0,0,0,-0.1954,-0.1947,-0.1882,-0.1907,-0.1897,-0.1854,-0.184,-0.1832,-0.182,-0.1779,-0.1771,-0.1795,-0.1739,-0.1733,-0.1722,-0.1754,-0.1704,-0.1702,-0.1709,-0.1711,-0.1713,-0.1799,0,0,0,0,0,0,-0.1956,-0.1948,-0.1948,-0.1907,-0.1896,-0.1879,-0.1841,-0.1831,-0.1818,-0.1813,-0.1774,-0.1767,-0.1738,-0.1724,-0.172,-0.1751,-0.1701,-0.1708,-0.171,-0.1712,-0.1795,-0.1804,-0.1811,0,0,0,0,0,-0.1959,-0.1965,-0.1948,-0.1941,-0.1895,-0.188,-0.1874,-0.184,-0.1819,-0.1823,-0.1791,-0.1768,-0.1736,-0.1724,-0.1718,-0.175,-0.1707,-0.171,-0.1712,-0.1791,-0.1802,-0.1811,0,0,0,0,0,0,-0.1999,-0.1959,-0.1939,-0.1932,-0.1912,-0.1871,-0.1868,-0.1848,-0.1825,-0.1815,-0.1777,-0.1769,-0.1771,-0.1749,-0.1737,-0.1759,-0.172,-0.1722,-0.1782,-0.1792,-0.18,-0.1827,-0.17,0,0,0,0,0,-0.2009,-0.1998,-0.1964,-0.1957,-0.1948,-0.191,-0.19,-0.1878,-0.185,-0.1838,-0.1811,-0.1787,-0.1779,-0.1775,-0.1756,-0.1769,-0.1758,-0.1788,-0.1796,-0.1803,-0.1822,-0.1839,-0.1851,-0.1722,-0.1722,-0.1722,0,0,-0.2021,-0.1998,-0.1991,-0.1965,-0.1941,-0.194,-0.1901,-0.1888,-0.1897,-0.1837,-0.1837,-0.181,-0.1786,-0.1796,-0.1797,-0.1782,-0.183,-0.1807,-0.1813,-0.1828,-0.1843,-0.1856,-0.1867,-0.1724,-0.1724,-0.1723,0,0,-0.2036,-0.2019,-0.2012,-0.2004,-0.1977,-0.1964,-0.1965,-0.193,-0.1925,-0.1917,-0.1886,-0.1885,-0.1854,-0.1859,-0.1856,-0.1902,-0.1869,-0.1891,-0.1962,-0.1978,-0.1989,-0.1999,-0.1988,-0.1996,-0.1902,-0.1902,-0.1902,0,-0.2052,-0.2037,-0.2012,-0.2009,-0.2016,-0.198,-0.1993,-0.1985,-0.1954,-0.1973,-0.1926,-0.1921,-0.1892,-0.194,-0.1947,-0.1925,-0.1913,-0.1926,-0.1991,-0.2,-0.2009,-0.1994,-0.2002,-0.1907,-0.1906,-0.1906,-0.1905,0,-0.2053,-0.2054,-0.2054,-0.2041,-0.2054,-0.2056,-0.2053,-0.2066,-0.205,-0.2044,-0.2071,-0.2031,-0.2032,-0.2027,-0.1994,-0.2054,-0.2017,-0.1994,-0.1969,-0.2027,-0.2008,-0.2014,-0.1913,-0.1911,-0.191,-0.1909,0,0,-0.2054,-0.2054,-0.2055,-0.2074,-0.2075,-0.2091,-0.2128,-0.2164,-0.2202,-0.2173,-0.2221,-0.2205,-0.218,-0.2175,-0.2145,-0.2161,-0.2192,-0.2104,-0.2103,-0.2098,-0.2209,-0.2064,-0.2056,-0.2177,-0.2179,-0.2181,-0.2166,0,-0.206,-0.2076,-0.2082,-0.2127,-0.2143,-0.2164,-0.2213,-0.225,-0.226,-0.2294,-0.2287,-0.2296,-0.2238,-0.2231,-0.2244,-0.2197,-0.2215,-0.2197,-0.2148,-0.2147,-0.2017,-0.2062,-0.1962,-0.193,-0.2172,-0.2174,-0.2174,0,-0.2052,-0.2073,-0.2109,-0.2191,-0.2204,-0.2234,-0.2331,-0.2366,-0.242,-0.2427,-0.2447,-0.2418,-0.2434,-0.2365,-0.2349,-0.2334,-0.2286,-0.2252,-0.225,-0.2094,-0.2015,-0.1913,-0.1932,-0.1919,-0.2184,-0.2183,-0.2182,0,-0.2059,-0.2104,-0.2144,-0.2161,-0.2233,-0.228,-0.233,-0.2403,-0.244,-0.25,-0.25,-0.2534,-0.2491,-0.2483,-0.2361,-0.2368,-0.2318,-0.2321,-0.2162,-0.215,-0.2045,-0.2019,-0.2051,-0.2338,-0.2338,-0.2338,-0.2338,0,-0.2061,-0.2096,-0.2147,-0.2166,-0.224,-0.2301,-0.2382,-0.2435,-0.25,-0.2509,-0.2547,-0.2514,-0.2511,-0.2453,-0.2403,-0.2264,-0.2344,-0.2183,-0.2145,-0.2066,-0.2044,-0.2009,-0.2024,-0.2337,-0.2337,-0.2337,-0.2338,0,-0.204,-0.2069,-0.2118,-0.2201,-0.2229,-0.228,-0.2375,-0.2422,-0.2487,-0.249,-0.2495,-0.2491,-0.2399,-0.2374,-0.2319,-0.2258,-0.2137,-0.2124,-0.2007,-0.1954,-0.1806,-0.1829,-0.1796,-0.1755,-0.1993,-0.1989,-0.1986,0,-0.2023,-0.2037,-0.2114,-0.2136,-0.2163,-0.2242,-0.2282,-0.2387,-0.2407,-0.2423,-0.2391,-0.2338,-0.2214,-0.2099,-0.2026,-0.1948,-0.1966,-0.1819,-0.1828,-0.1788,-0.1789,-0.1808,-0.178,-0.1728,-0.1723,-0.1719,-0.1716,0,-0.1985,-0.2002,-0.2033,-0.206,-0.2099,-0.2147,-0.2199,-0.2208,-0.2275,-0.2255,-0.2147,-0.2061,-0.195,-0.1795,-0.1713,-0.1662,-0.177,-0.1731,-0.1746,-0.1629,-0.1602,-0.1543,-0.1735,-0.168,-0.1684,-0.1687,-0.1688,-0.169,-0.1934,-0.1933,-0.1943,-0.1954,-0.1992,-0.1972,-0.1944,-0.1975,-0.1934,-0.184,-0.1864,-0.1707,-0.1649,-0.1501,-0.1458,-0.1385,-0.1464,-0.1372,-0.1418,-0.1452,-0.1374,-0.1456,-0.1313,-0.1314,-0.1315,-0.1316,-0.1317,0,-0.1844,-0.1828,-0.1835,-0.1814,-0.1768,-0.1833,-0.1815,-0.1733,-0.1585,-0.1586,-0.1472,-0.1366,-0.1233,-0.1236,-0.1169,-0.1115,-0.1137,-0.1108,-0.1168,-0.1166,-0.1283,-0.123,-0.0993,-0.0993,-0.0993,-0.0993,-0.0993,-0.0993,-0.1793,-0.1736,-0.1712,-0.1561,-0.1539,-0.1403,-0.1341,-0.1243,-0.1211,-0.1063,-0.1032,-0.1036,-0.1048,-0.1103,-0.1043,-0.1005,-0.1033,-0.0961,-0.1024,-0.116,-0.1191,-0.1221,-0.1176,-0.0931,-0.0931,-0.0866,-0.0866,-0.0865]},{"header":{"parameterUnit":"m.s-1","parameterCategory":2,"la1":30.2991,"la2":30.254,"lo1":-89.0895,"lo2":-89.0444,"dy":0.0017,"dx":0.0017,"nx":28,"ny":28,"refTime":"2023-10-26T03:00:00:Z","depth":"0","parameterNumber":3,"parameterNumberName":"V-component_of_CURRENTS"},"data":[0,0,0,0,0,0,0,0,0,0,0,0,0,0,0,0,0,0,0,0,0,0,0,0,0,0,0,0,0,0,0,0,0,0,0,0,0,0,0,0,0,0,0,0,0,0,0,0,0,0,0,0,0,0,0,0,0,0,-0.0322,-0.0322,0,-0.0267,-0.0266,-0.0265,-0.0227,-0.0227,-0.0227,-0.0227,-0.0094,-0.009,-0.0086,0,0,0,0,0,0,0,0,0,0,0,0,0,-0.0296,-0.0297,-0.0322,-0.0322,-0.0322,-0.0267,-0.0266,-0.0264,-0.0227,-0.0227,-0.0227,-0.0227,-0.0095,-0.009,-0.0086,0,0,0,0,0,0,0,0,0,0,0,0,0,-0.0277,-0.0298,-0.0322,-0.03,-0.0297,-0.0267,-0.0266,-0.0264,-0.0227,-0.0227,-0.0227,-0.0227,-0.0096,-0.0091,-0.0085,-0.0047,0,0,-0.0069,-0.0066,0,0,0,0,0,0,0,0,-0.0278,-0.0277,-0.0303,-0.0301,-0.0299,-0.0258,-0.0208,-0.0189,-0.0227,-0.0249,-0.0227,-0.0227,-0.0144,-0.0135,-0.0118,-0.0041,-0.0035,-0.0068,-0.0065,-0.0062,-0.0061,0,0,0,0,0,0,0,-0.028,-0.0279,-0.0296,-0.0303,-0.03,-0.0258,-0.0256,-0.0203,-0.0191,-0.0247,-0.0245,-0.0246,-0.0142,-0.0124,-0.0115,-0.0033,-0.0068,-0.0063,-0.006,-0.0058,0.0117,0.0118,0,0,0,0,0,0,-0.0301,-0.0281,-0.0298,-0.0295,-0.0294,-0.026,-0.0257,-0.0267,-0.0193,-0.0184,-0.0246,-0.0245,-0.0133,-0.0121,-0.011,-0.0045,-0.0062,-0.0057,-0.0054,0.0116,0.0117,0.0119,0,0,0,0,0,0,-0.0301,-0.0303,-0.03,-0.0289,-0.0286,-0.0261,-0.0272,-0.0266,-0.0251,-0.0194,-0.0183,-0.0238,-0.0133,-0.0118,-0.0055,-0.004,-0.0055,-0.005,0.0114,0.0116,0.0118,0.0077,0,0,0,0,0,0,-0.03,-0.0304,-0.0311,-0.0291,-0.0288,-0.0283,-0.0272,-0.0265,-0.0253,-0.0251,-0.0183,-0.0171,-0.0132,-0.0063,-0.005,-0.0032,-0.0045,0.0112,0.0115,0.0117,0.0076,0.0077,0.0078,0,0,0,0,0,-0.03,-0.0314,-0.0312,-0.0314,-0.0303,-0.0284,-0.0277,-0.0256,-0.0253,-0.0243,-0.0193,-0.0174,-0.0038,-0.0058,-0.0042,-0.0023,0.0111,0.0114,0.0117,0.0076,0.0077,0.0077,0,0,0,0,0,0,-0.0303,-0.0311,-0.0309,-0.0324,-0.0306,-0.0279,-0.0272,-0.0259,-0.0213,-0.021,-0.0156,-0.0139,-0.008,-0.0041,-0.0065,0.0037,0.004,0.0047,0.0004,0.0005,0.0005,-0.0008,-0.0041,0,0,0,0,0,-0.0311,-0.0326,-0.0316,-0.0326,-0.0322,-0.0297,-0.0286,-0.0273,-0.0237,-0.0218,-0.0171,-0.0112,-0.0053,-0.0019,0.0036,0.0093,0.0111,0.0118,0.0118,0.0118,0.0121,0.0153,0.0155,0.0129,0.0129,0.0128,0,0,-0.0316,-0.0322,-0.033,-0.0328,-0.0313,-0.0303,-0.029,-0.0279,-0.0259,-0.0208,-0.016,-0.0111,-0.0038,0.0024,0.0055,0.0058,0.0136,0.0122,0.0121,0.0124,0.0156,0.0158,0.016,0.0131,0.013,0.013,0,0,-0.0333,-0.0338,-0.0355,-0.0342,-0.0331,-0.0311,-0.0311,-0.0282,-0.0257,-0.0208,-0.0164,-0.0105,-0.0021,0.0037,0.0077,0.0118,0.0134,0.0134,0.0131,0.0162,0.0164,0.0165,0.0184,0.0187,0.0138,0.0138,0.0138,0,-0.0336,-0.0361,-0.0351,-0.0355,-0.0349,-0.0318,-0.0319,-0.0283,-0.0233,-0.0206,-0.0197,-0.007,-0.0011,0.0071,0.0089,0.0118,0.0128,0.0116,0.0159,0.0162,0.0164,0.0182,0.0187,0.0137,0.0137,0.0137,0.0137,0,-0.0362,-0.0376,-0.0381,-0.038,-0.0362,-0.036,-0.0318,-0.0287,-0.0256,-0.0219,-0.0144,-0.0065,0.0008,0.0041,0.0081,0.0138,0.0137,0.0147,0.0147,0.0163,0.0183,0.0188,0.0134,0.0135,0.0135,0.0136,0,0,-0.0387,-0.0401,-0.0401,-0.0413,-0.0379,-0.0374,-0.0327,-0.0282,-0.026,-0.0192,-0.0158,-0.0041,-0.0011,0.0037,0.0093,0.0133,0.0164,0.0145,0.0148,0.0144,0.0216,0.0253,0.0263,0.017,0.0171,0.0172,0.0218,0,-0.0411,-0.0446,-0.0428,-0.0438,-0.0455,-0.0401,-0.0364,-0.0311,-0.0259,-0.0213,-0.0122,-0.0068,-0.0008,0.0016,0.0071,0.0137,0.0178,0.015,0.0218,0.022,0.0236,0.0271,0.0302,0.035,0.0224,0.0225,0.0225,0,-0.0443,-0.0468,-0.0496,-0.0494,-0.0491,-0.0477,-0.0427,-0.0389,-0.0299,-0.0259,-0.0183,-0.0123,-0.003,-0.0002,0.0124,0.0097,0.0157,0.0206,0.0209,0.0263,0.0269,0.0318,0.0365,0.0459,0.0234,0.0233,0.0233,0,-0.0497,-0.0511,-0.0544,-0.0543,-0.0525,-0.0512,-0.0488,-0.0408,-0.0384,-0.0297,-0.0281,-0.0161,-0.0118,-0.002,0.0109,0.0105,0.0227,0.0231,0.0324,0.0326,0.0379,0.0385,0.0512,0.0312,0.0312,0.0312,0.0311,0,-0.0544,-0.0568,-0.0579,-0.06,-0.0626,-0.0579,-0.0575,-0.0526,-0.0463,-0.0427,-0.0322,-0.0271,-0.0124,-0.0025,0.0085,0.023,0.0213,0.0333,0.0349,0.0367,0.0371,0.0477,0.0503,0.0313,0.0313,0.0313,0.0312,0,-0.0603,-0.061,-0.0656,-0.066,-0.0663,-0.0683,-0.0661,-0.0653,-0.058,-0.0533,-0.0512,-0.0369,-0.0219,-0.0068,0.0096,0.0196,0.0389,0.0381,0.039,0.0407,0.0578,0.0599,0.0719,0.0776,0.0481,0.0483,0.0484,0,-0.064,-0.0675,-0.0719,-0.0755,-0.0764,-0.0782,-0.0789,-0.0727,-0.0706,-0.0572,-0.0556,-0.0406,-0.0258,-0.001,0.019,0.0385,0.0454,0.0508,0.0523,0.0607,0.0642,0.0642,0.0681,0.057,0.0572,0.0573,0.0574,0,-0.0714,-0.0729,-0.0772,-0.0847,-0.0882,-0.0903,-0.09,-0.0898,-0.0788,-0.0715,-0.0565,-0.0436,-0.0173,0.0091,0.0332,0.0444,0.0574,0.0543,0.0636,0.0736,0.074,0.0795,0.0505,0.0587,0.0586,0.0585,0.0584,0.0584,-0.0766,-0.082,-0.0874,-0.0938,-0.0973,-0.0982,-0.097,-0.092,-0.0848,-0.0654,-0.0562,-0.0278,0.0022,0.0386,0.0502,0.0745,0.0699,0.0815,0.0835,0.0828,0.0891,0.0627,0.0725,0.0725,0.0725,0.0724,0.0724,0,-0.0836,-0.0889,-0.0957,-0.1014,-0.1037,-0.1033,-0.1005,-0.093,-0.0796,-0.0579,-0.0385,0.007,0.0358,0.0631,0.0935,0.1041,0.105,0.108,0.1095,0.1123,0.0904,0.0918,0.1057,0.1057,0.1057,0.1057,0.1057,0.1057,-0.0881,-0.0968,-0.0998,-0.1049,-0.1062,-0.1029,-0.0989,-0.0841,-0.0655,-0.0258,0.0087,0.0344,0.0692,0.1039,0.1286,0.1295,0.1378,0.1348,0.1397,0.1254,0.123,0.1208,0.123,0.1432,0.1433,0.1614,0.1616,0.1617]}],[{"header":{"parameterUnit":"m.s-1","parameterCategory":2,"la1":30.2991,"la2":30.254,"lo1":-89.0895,"lo2":-89.0444,"dy":0.0017,"dx":0.0017,"nx":28,"ny":28,"refTime":"2023-10-26T03:00:00:Z","depth":"2","parameterNumber":2,"parameterNumberName":"U-component_of_CURRENTS"},"data":[0,0,0,0,0,0,0,0,0,0,0,0,0,0,0,0,0,0,0,0,0,0,0,0,0,0,0,0,0,0,0,0,0,0,0,0,0,0,0,0,0,0,0,0,0,0,0,0,0,0,0,0,0,0,0,0,0,0,-0.178,-0.1779,0,-0.1724,-0.1723,-0.1722,-0.1666,-0.1666,-0.1665,-0.1665,-0.1597,-0.1596,-0.1595,0,0,0,0,0,0,0,0,0,0,0,0,0,-0.1768,-0.1769,-0.178,-0.1779,-0.1779,-0.1724,-0.1723,-0.1722,-0.1666,-0.1666,-0.1665,-0.1664,-0.1598,-0.1596,-0.1595,0,0,0,0,0,0,0,0,0,0,0,0,0,-0.1748,-0.1769,-0.178,-0.1746,-0.1742,-0.1724,-0.1723,-0.1722,-0.1667,-0.1666,-0.1665,-0.1664,-0.1598,-0.1596,-0.1595,-0.16,0,0,-0.1589,-0.1588,0,0,0,0,0,0,0,0,-0.1749,-0.1748,-0.1751,-0.1748,-0.1744,-0.1703,-0.1694,-0.1681,-0.1667,-0.1694,-0.1665,-0.1664,-0.1633,-0.1628,-0.1618,-0.1597,-0.1594,-0.1589,-0.1588,-0.1587,-0.1586,0,0,0,0,0,0,0,-0.175,-0.175,-0.1756,-0.1751,-0.1746,-0.1709,-0.1705,-0.1691,-0.1667,-0.1691,-0.1687,-0.1684,-0.1631,-0.162,-0.1616,-0.1593,-0.1589,-0.1587,-0.1586,-0.1585,-0.1579,-0.158,0,0,0,0,0,0,-0.1766,-0.1752,-0.1758,-0.1754,-0.1746,-0.171,-0.1706,-0.1715,-0.1668,-0.166,-0.1685,-0.1682,-0.1623,-0.1618,-0.1613,-0.1629,-0.1587,-0.1585,-0.1584,-0.1578,-0.1579,-0.158,0,0,0,0,0,0,-0.1766,-0.1767,-0.176,-0.1752,-0.1748,-0.1712,-0.1722,-0.1715,-0.1703,-0.1663,-0.1655,-0.1681,-0.1622,-0.1616,-0.1603,-0.1626,-0.1584,-0.1582,-0.1577,-0.1578,-0.1579,-0.1654,0,0,0,0,0,0,-0.1766,-0.1768,-0.1785,-0.1754,-0.175,-0.176,-0.1723,-0.1714,-0.1703,-0.1699,-0.1658,-0.165,-0.1621,-0.1607,-0.1602,-0.1622,-0.1581,-0.1575,-0.1577,-0.1579,-0.1651,-0.1658,-0.1664,0,0,0,0,0,-0.1766,-0.1791,-0.1786,-0.1787,-0.1773,-0.1761,-0.1756,-0.1725,-0.1704,-0.1709,-0.1677,-0.1652,-0.1614,-0.1606,-0.16,-0.1621,-0.1575,-0.1577,-0.1579,-0.1647,-0.1657,-0.1664,0,0,0,0,0,0,-0.1793,-0.1787,-0.1781,-0.1803,-0.179,-0.1753,-0.1751,-0.1732,-0.171,-0.17,-0.1661,-0.1652,-0.165,-0.1627,-0.1618,-0.1624,-0.1592,-0.1593,-0.1646,-0.1654,-0.1661,-0.1687,-0.1579,0,0,0,0,0,-0.181,-0.1825,-0.181,-0.1826,-0.1821,-0.1788,-0.178,-0.176,-0.1734,-0.1723,-0.1695,-0.1668,-0.1655,-0.1647,-0.1628,-0.1633,-0.1622,-0.1643,-0.165,-0.1656,-0.1673,-0.1694,-0.1705,-0.1587,-0.1587,-0.1587,0,0,-0.1825,-0.1822,-0.1831,-0.1832,-0.1813,-0.1817,-0.178,-0.177,-0.1777,-0.172,-0.1717,-0.1689,-0.1661,-0.1663,-0.1661,-0.1646,-0.1678,-0.1659,-0.1664,-0.1678,-0.1698,-0.171,-0.172,-0.1588,-0.1588,-0.1588,0,0,-0.1845,-0.1857,-0.1869,-0.1865,-0.1849,-0.1837,-0.184,-0.181,-0.1802,-0.1796,-0.1761,-0.1752,-0.1722,-0.1715,-0.1706,-0.1743,-0.1712,-0.1733,-0.1792,-0.1812,-0.1822,-0.1831,-0.1808,-0.1814,-0.1739,-0.1739,-0.1739,0,-0.1861,-0.1877,-0.187,-0.1875,-0.1881,-0.1852,-0.1866,-0.1858,-0.183,-0.1837,-0.1803,-0.1782,-0.1751,-0.1775,-0.1782,-0.1761,-0.1753,-0.1762,-0.1823,-0.1831,-0.184,-0.1813,-0.182,-0.1743,-0.1742,-0.1742,-0.1742,0,-0.1879,-0.1898,-0.1902,-0.1909,-0.1921,-0.1924,-0.1921,-0.1928,-0.1911,-0.1901,-0.1911,-0.1872,-0.1863,-0.1853,-0.1825,-0.1872,-0.184,-0.1828,-0.1805,-0.1856,-0.1824,-0.183,-0.1748,-0.1747,-0.1746,-0.1745,0,0,-0.1888,-0.1913,-0.1915,-0.1931,-0.194,-0.195,-0.198,-0.2001,-0.2025,-0.1999,-0.2034,-0.2004,-0.1981,-0.1971,-0.1941,-0.1958,-0.1989,-0.1923,-0.1922,-0.1905,-0.2009,-0.1861,-0.1851,-0.1994,-0.1996,-0.1998,-0.1955,0,-0.1898,-0.1932,-0.1945,-0.1984,-0.2,-0.2012,-0.205,-0.2071,-0.2074,-0.21,-0.208,-0.2086,-0.2028,-0.2024,-0.2036,-0.2007,-0.2011,-0.2,-0.1957,-0.1955,-0.1823,-0.1856,-0.1731,-0.1672,-0.196,-0.196,-0.1961,0,-0.1902,-0.1927,-0.197,-0.2032,-0.2043,-0.2069,-0.2134,-0.2165,-0.2204,-0.2205,-0.2214,-0.219,-0.2202,-0.2148,-0.213,-0.2127,-0.2077,-0.2048,-0.2045,-0.189,-0.1818,-0.1672,-0.167,-0.1969,-0.1968,-0.1968,-0.1967,0,-0.19,-0.1948,-0.199,-0.2004,-0.2064,-0.2097,-0.2141,-0.2191,-0.2223,-0.2273,-0.2276,-0.2296,-0.2268,-0.2261,-0.2143,-0.2163,-0.2104,-0.2122,-0.1939,-0.1926,-0.1802,-0.1774,-0.2119,-0.212,-0.212,-0.212,-0.212,0,-0.1903,-0.1934,-0.199,-0.2005,-0.2053,-0.2115,-0.2177,-0.2212,-0.2284,-0.2277,-0.2321,-0.2278,-0.2295,-0.2233,-0.2183,-0.2037,-0.2121,-0.1953,-0.1916,-0.1817,-0.1793,-0.2041,-0.2033,-0.2118,-0.2118,-0.2119,-0.2119,0,-0.1872,-0.192,-0.194,-0.2009,-0.2041,-0.2066,-0.2169,-0.2198,-0.2281,-0.2274,-0.2283,-0.2278,-0.218,-0.215,-0.2094,-0.2029,-0.1952,-0.1869,-0.172,-0.1665,-0.1767,-0.1763,-0.1736,-0.1731,-0.1726,-0.1722,-0.1719,0,-0.1855,-0.187,-0.191,-0.1915,-0.1936,-0.2006,-0.2039,-0.2159,-0.2174,-0.2201,-0.2162,-0.2113,-0.1977,-0.1861,-0.1778,-0.1685,-0.1761,-0.1512,-0.1538,-0.1767,-0.1733,-0.1736,-0.1738,-0.1399,-0.1393,-0.1389,-0.1385,0,-0.1795,-0.18,-0.1801,-0.1809,-0.1827,-0.1864,-0.1921,-0.1939,-0.2018,-0.2008,-0.1907,-0.1827,-0.1702,-0.1528,-0.1426,-0.1365,-0.1541,-0.1414,-0.1707,-0.1499,-0.1441,-0.141,-0.1425,-0.1345,-0.1349,-0.1352,-0.1354,-0.1356,-0.171,-0.1665,-0.166,-0.1654,-0.1684,-0.1668,-0.165,-0.1692,-0.1673,-0.1609,-0.1608,-0.1447,-0.1431,-0.1197,-0.1111,-0.1085,-0.1205,-0.1191,-0.1209,-0.1232,-0.1184,-0.1119,-0.0952,-0.0954,-0.0955,-0.0957,-0.0958,0,-0.1559,-0.1535,-0.1521,-0.1485,-0.146,-0.1528,-0.1522,-0.1468,-0.1358,-0.1319,-0.1226,-0.1038,-0.0911,-0.0915,-0.08,-0.078,-0.0834,-0.0764,-0.0848,-0.0886,-0.0921,-0.0863,-0.0544,-0.0543,-0.0542,-0.0541,0,0,-0.1479,-0.1389,-0.1365,-0.126,-0.1257,-0.1161,-0.1113,-0.1044,-0.1002,-0.0867,-0.0796,-0.083,-0.0844,-0.068,-0.0655,-0.0571,-0.0728,-0.0546,-0.0874,-0.1007,-0.1041,-0.1155,-0.1105,0,0,0,0,0]},{"header":{"parameterUnit":"m.s-1","parameterCategory":2,"la1":30.2991,"la2":30.254,"lo1":-89.0895,"lo2":-89.0444,"dy":0.0017,"dx":0.0017,"nx":28,"ny":28,"refTime":"2023-10-26T03:00:00:Z","depth":"2","parameterNumber":3,"parameterNumberName":"V-component_of_CURRENTS"},"data":[0,0,0,0,0,0,0,0,0,0,0,0,0,0,0,0,0,0,0,0,0,0,0,0,0,0,0,0,0,0,0,0,0,0,0,0,0,0,0,0,0,0,0,0,0,0,0,0,0,0,0,0,0,0,0,0,0,0,-0.0331,-0.0331,0,-0.0278,-0.0277,-0.0277,-0.0243,-0.0243,-0.0243,-0.0243,-0.0121,-0.0118,-0.0114,0,0,0,0,0,0,0,0,0,0,0,0,0,-0.0327,-0.0327,-0.0331,-0.0331,-0.0331,-0.0279,-0.0277,-0.0276,-0.0243,-0.0243,-0.0243,-0.0243,-0.0122,-0.0118,-0.0114,0,0,0,0,0,0,0,0,0,0,0,0,0,-0.0303,-0.0327,-0.0331,-0.0311,-0.0309,-0.0279,-0.0277,-0.0276,-0.0243,-0.0243,-0.0243,-0.0244,-0.0123,-0.0118,-0.0113,-0.0076,0,0,-0.0098,-0.0095,0,0,0,0,0,0,0,0,-0.0305,-0.0303,-0.0314,-0.0312,-0.031,-0.0271,-0.0231,-0.0207,-0.0243,-0.0264,-0.0243,-0.0244,-0.0167,-0.0158,-0.0143,-0.0071,-0.0065,-0.0097,-0.0094,-0.0092,-0.009,0,0,0,0,0,0,0,-0.0306,-0.0305,-0.0306,-0.0314,-0.0311,-0.0278,-0.0275,-0.0226,-0.021,-0.0262,-0.026,-0.0261,-0.0165,-0.0148,-0.014,-0.0064,-0.0097,-0.0093,-0.009,-0.0088,0.0071,0.0072,0,0,0,0,0,0,-0.0325,-0.0307,-0.0308,-0.0305,-0.0312,-0.0279,-0.0275,-0.028,-0.0212,-0.0204,-0.026,-0.0259,-0.0157,-0.0146,-0.0135,-0.0076,-0.0092,-0.0087,-0.0084,0.007,0.0071,0.0072,0,0,0,0,0,0,-0.0325,-0.0326,-0.031,-0.0307,-0.0304,-0.028,-0.0284,-0.0279,-0.0265,-0.0213,-0.0202,-0.0254,-0.0157,-0.0143,-0.0084,-0.0072,-0.0085,-0.008,0.0068,0.007,0.0072,0.0035,0,0,0,0,0,0,-0.0325,-0.0326,-0.033,-0.0309,-0.0305,-0.0293,-0.0284,-0.0278,-0.0267,-0.0265,-0.0203,-0.0192,-0.0156,-0.0092,-0.0079,-0.0065,-0.0076,0.0067,0.0069,0.0071,0.0035,0.0035,0.0035,0,0,0,0,0,-0.0325,-0.0333,-0.033,-0.033,-0.0313,-0.0294,-0.0287,-0.0268,-0.0267,-0.0257,-0.0211,-0.0194,-0.007,-0.0087,-0.0072,-0.0056,0.0066,0.0069,0.0071,0.0034,0.0035,0.0035,0,0,0,0,0,0,-0.0328,-0.033,-0.0327,-0.0333,-0.0316,-0.029,-0.0282,-0.0271,-0.0229,-0.0227,-0.0177,-0.0161,-0.0107,-0.0072,-0.0093,-0.0002,0.0,0.0006,-0.0032,-0.0031,-0.0031,-0.0043,-0.0072,0,0,0,0,0,-0.0334,-0.0342,-0.033,-0.0333,-0.0329,-0.0306,-0.0296,-0.0284,-0.025,-0.0233,-0.0189,-0.0137,-0.0084,-0.0052,-0.0003,0.005,0.0072,0.007,0.0071,0.0071,0.0073,0.0115,0.0118,0.0081,0.0081,0.0081,0,0,-0.0336,-0.0338,-0.0342,-0.0335,-0.0321,-0.0312,-0.0299,-0.0289,-0.0271,-0.0224,-0.018,-0.0135,-0.007,-0.0014,0.0014,0.0017,0.0093,0.0074,0.0073,0.0076,0.0118,0.0121,0.0124,0.0082,0.0082,0.0082,0,0,-0.0349,-0.0347,-0.036,-0.0347,-0.0337,-0.0318,-0.0319,-0.0291,-0.0269,-0.0223,-0.0184,-0.013,-0.0053,-0.0002,0.0034,0.007,0.0091,0.0083,0.008,0.012,0.0123,0.0126,0.0151,0.0156,0.0086,0.0086,0.0086,0,-0.0351,-0.037,-0.0356,-0.036,-0.0354,-0.0325,-0.0327,-0.0293,-0.0246,-0.0222,-0.0213,-0.0097,-0.0045,0.0028,0.0043,0.007,0.0087,0.0068,0.0118,0.0122,0.0125,0.015,0.0157,0.0085,0.0085,0.0085,0.0085,0,-0.0374,-0.0383,-0.0387,-0.0385,-0.0367,-0.0365,-0.0327,-0.0298,-0.027,-0.0236,-0.0166,-0.0093,-0.0027,0.0002,0.0037,0.0094,0.0095,0.0107,0.0108,0.0126,0.0152,0.0159,0.0083,0.0083,0.0084,0.0084,0,0,-0.0396,-0.0405,-0.0406,-0.0417,-0.0385,-0.038,-0.0337,-0.0298,-0.0275,-0.0213,-0.0176,-0.0076,-0.0046,-0.0003,0.0047,0.0092,0.0134,0.0108,0.011,0.0117,0.0209,0.0218,0.0227,0.0147,0.0148,0.0149,0.0213,0,-0.0421,-0.0453,-0.0434,-0.0444,-0.046,-0.0409,-0.0375,-0.0327,-0.0274,-0.0224,-0.0143,-0.0088,-0.0044,-0.0016,0.0038,0.011,0.0153,0.0115,0.0205,0.0208,0.0201,0.0236,0.0218,0.0274,0.022,0.0221,0.0222,0,-0.0454,-0.0476,-0.0503,-0.0499,-0.0497,-0.0485,-0.0435,-0.0399,-0.0308,-0.0265,-0.0192,-0.013,-0.004,-0.0017,0.0111,0.0081,0.0143,0.0196,0.02,0.0228,0.0231,0.0253,0.029,0.0235,0.0234,0.0233,0.0232,0,-0.0508,-0.052,-0.0551,-0.0549,-0.0531,-0.0522,-0.0499,-0.042,-0.0386,-0.0296,-0.0263,-0.0153,-0.01,-0.0005,0.0114,0.0111,0.0242,0.025,0.0317,0.0318,0.0332,0.0332,0.0336,0.0336,0.0336,0.0336,0.0336,0,-0.0556,-0.0578,-0.0586,-0.0607,-0.0631,-0.0586,-0.0578,-0.053,-0.045,-0.0403,-0.03,-0.0238,-0.0095,0.0004,0.0103,0.0232,0.0234,0.0326,0.0343,0.0319,0.0317,0.0307,0.0303,0.0338,0.0338,0.0337,0.0337,0,-0.0613,-0.0618,-0.0659,-0.0661,-0.0666,-0.0684,-0.0651,-0.063,-0.0549,-0.0483,-0.0456,-0.0304,-0.0166,-0.0028,0.0135,0.0215,0.0337,0.0379,0.0335,0.0346,0.0386,0.0379,0.0463,0.0464,0.0465,0.0466,0.0467,0,-0.0649,-0.0681,-0.0715,-0.0746,-0.0754,-0.077,-0.0768,-0.0696,-0.0655,-0.0512,-0.0478,-0.033,-0.0192,0.0035,0.0195,0.0364,0.0366,0.043,0.0434,0.0395,0.0403,0.0395,0.0387,0.0434,0.0435,0.0435,0.0435,0,-0.0719,-0.0727,-0.0758,-0.0824,-0.085,-0.0861,-0.0847,-0.0825,-0.0708,-0.0617,-0.0464,-0.0343,-0.0119,0.0084,0.0281,0.0371,0.0402,0.0441,0.0427,0.0401,0.0372,0.0378,0.0371,0.0437,0.0437,0.0437,0.0437,0.0437,-0.0762,-0.0798,-0.0839,-0.0893,-0.0922,-0.092,-0.0902,-0.0835,-0.0743,-0.0552,-0.0457,-0.0229,-0.008,0.024,0.0348,0.0445,0.0456,0.0485,0.0483,0.0481,0.0462,0.0436,0.0509,0.0509,0.0509,0.0509,0.0509,0,-0.0811,-0.0848,-0.0905,-0.0951,-0.097,-0.0969,-0.092,-0.0844,-0.0701,-0.0523,-0.0337,-0.011,0.0103,0.0249,0.0417,0.0506,0.0487,0.0504,0.0468,0.0466,0.0464,0.0443,0.0486,0.0486,0.0486,0.0486,0,0,-0.0841,-0.0903,-0.0924,-0.0974,-0.0992,-0.096,-0.0913,-0.077,-0.0618,-0.0398,-0.0213,-0.0018,0.0151,0.0265,0.0357,0.0433,0.0419,0.0426,0.0437,0.0381,0.0378,0.0447,0.0412,0,0,0,0,0]}],[{"header":{"parameterUnit":"m.s-1","parameterCategory":2,"la1":30.2991,"la2":30.254,"lo1":-89.0895,"lo2":-89.0444,"dy":0.0017,"dx":0.0017,"nx":28,"ny":28,"refTime":"2023-10-26T03:00:00:Z","depth":"4","parameterNumber":2,"parameterNumberName":"U-component_of_CURRENTS"},"data":[0,0,0,0,0,0,0,0,0,0,0,0,0,0,0,0,0,0,0,0,0,0,0,0,0,0,0,0,0,0,0,0,0,0,0,0,0,0,0,0,0,0,0,0,0,0,0,0,0,0,0,0,0,0,0,0,0,0,-0.0559,-0.0559,0,-0.0574,-0.0574,-0.0574,-0.0628,-0.0629,-0.063,-0.063,-0.0656,-0.0656,-0.0656,0,0,0,0,0,0,0,0,0,0,0,0,0,-0.0453,-0.0455,-0.0559,-0.0559,-0.0559,-0.0574,-0.0574,-0.0575,-0.0627,-0.0629,-0.063,-0.0631,-0.0656,-0.0656,-0.0656,0,0,0,0,0,0,0,0,0,0,0,0,0,-0.0489,-0.0456,-0.0559,-0.0585,-0.0587,-0.0573,-0.0574,-0.0575,-0.0627,-0.0629,-0.063,-0.0631,-0.0656,-0.0656,-0.0656,-0.0625,0,0,-0.0655,-0.0655,0,0,0,0,0,0,0,0,-0.0487,-0.0493,-0.0581,-0.0583,-0.0586,-0.0598,-0.0546,-0.0591,-0.0627,-0.0615,-0.063,-0.0632,-0.0635,-0.0636,-0.064,-0.0626,-0.0627,-0.0655,-0.0654,-0.0654,-0.0654,0,0,0,0,0,0,0,-0.0485,-0.0492,-0.0567,-0.0581,-0.0584,-0.0553,-0.0562,-0.0554,-0.0619,-0.0616,-0.0619,-0.0616,-0.0637,-0.064,-0.0641,-0.0627,-0.0655,-0.0654,-0.0654,-0.0654,-0.068,-0.0681,0,0,0,0,0,0,-0.0483,-0.0491,-0.0567,-0.0567,-0.0536,-0.0554,-0.0564,-0.0595,-0.0619,-0.0623,-0.0615,-0.0619,-0.064,-0.0641,-0.0642,-0.0724,-0.0654,-0.0654,-0.0654,-0.0679,-0.068,-0.0681,0,0,0,0,0,0,-0.0481,-0.0491,-0.0566,-0.0525,-0.0532,-0.0555,-0.0589,-0.0594,-0.0609,-0.0617,-0.0623,-0.0625,-0.0641,-0.0642,-0.065,-0.0721,-0.0654,-0.0654,-0.0678,-0.0679,-0.068,-0.0812,0,0,0,0,0,0,-0.0479,-0.0491,-0.0512,-0.0526,-0.0534,-0.0571,-0.0588,-0.0593,-0.0603,-0.0608,-0.0627,-0.0631,-0.0642,-0.065,-0.0649,-0.0719,-0.0653,-0.0677,-0.0679,-0.068,-0.0807,-0.0818,-0.0827,0,0,0,0,0,-0.0475,-0.0502,-0.0514,-0.0522,-0.0564,-0.0571,-0.0573,-0.0593,-0.0602,-0.0611,-0.0624,-0.0631,-0.0661,-0.065,-0.0649,-0.072,-0.0676,-0.0678,-0.068,-0.0802,-0.0816,-0.0827,0,0,0,0,0,0,-0.0458,-0.051,-0.0523,-0.0563,-0.0569,-0.0579,-0.0589,-0.0592,-0.0608,-0.0619,-0.0626,-0.063,-0.0664,-0.0653,-0.0641,-0.0728,-0.0676,-0.0677,-0.0769,-0.0781,-0.0791,-0.0797,-0.0653,0,0,0,0,0,-0.0463,-0.0507,-0.0529,-0.0556,-0.0566,-0.0574,-0.0578,-0.0591,-0.0602,-0.0612,-0.0636,-0.0653,-0.0667,-0.0692,-0.0692,-0.0731,-0.0701,-0.0777,-0.0788,-0.0797,-0.0798,-0.0801,-0.0812,-0.0687,-0.0687,-0.0687,0,0,-0.0456,-0.0492,-0.0513,-0.0554,-0.0566,-0.058,-0.0583,-0.0597,-0.0619,-0.0609,-0.0662,-0.0674,-0.0674,-0.073,-0.0748,-0.074,-0.0816,-0.08,-0.0808,-0.0804,-0.0804,-0.0816,-0.0827,-0.0689,-0.0689,-0.0688,0,0,-0.0461,-0.0505,-0.0541,-0.0555,-0.0579,-0.0585,-0.0588,-0.0617,-0.0649,-0.0684,-0.069,-0.0734,-0.0766,-0.0798,-0.081,-0.0863,-0.0851,-0.0883,-0.0973,-0.0977,-0.0987,-0.0996,-0.0979,-0.0986,-0.0915,-0.0915,-0.0915,0,-0.0453,-0.0505,-0.0541,-0.0572,-0.0581,-0.0588,-0.0605,-0.0631,-0.0663,-0.0706,-0.0717,-0.0797,-0.0799,-0.0869,-0.0911,-0.0892,-0.0885,-0.0936,-0.0993,-0.1001,-0.1008,-0.0988,-0.0994,-0.0922,-0.0921,-0.092,-0.092,0,-0.0476,-0.0518,-0.0535,-0.0588,-0.06,-0.0613,-0.0647,-0.0692,-0.0734,-0.0775,-0.0864,-0.0887,-0.0949,-0.0971,-0.0967,-0.1042,-0.1016,-0.0989,-0.097,-0.103,-0.1004,-0.1007,-0.0931,-0.0929,-0.0927,-0.0925,0,0,-0.0457,-0.054,-0.0545,-0.0569,-0.0612,-0.0618,-0.068,-0.0741,-0.0796,-0.0876,-0.0951,-0.103,-0.1079,-0.1091,-0.1111,-0.1138,-0.1188,-0.1113,-0.111,-0.111,-0.1198,-0.1127,-0.1123,-0.119,-0.1192,-0.1193,-0.1162,0,-0.046,-0.053,-0.056,-0.059,-0.0624,-0.066,-0.0719,-0.0782,-0.085,-0.0929,-0.1006,-0.1084,-0.1114,-0.1174,-0.1207,-0.1166,-0.1203,-0.1198,-0.1126,-0.1123,-0.1065,-0.1127,-0.1197,-0.1164,-0.1165,-0.1165,-0.1166,0,-0.0458,-0.0519,-0.0576,-0.0632,-0.0647,-0.0676,-0.0769,-0.0821,-0.094,-0.1005,-0.1119,-0.1166,-0.1247,-0.1244,-0.127,-0.1274,-0.1262,-0.1234,-0.1232,-0.112,-0.1059,-0.1087,-0.1171,-0.117,-0.117,-0.117,-0.1169,0,-0.043,-0.05,-0.0552,-0.0572,-0.0658,-0.071,-0.0762,-0.088,-0.0931,-0.1076,-0.111,-0.1231,-0.1261,-0.129,-0.1293,-0.1289,-0.1274,-0.1242,-0.1171,-0.1164,-0.1178,-0.1168,-0.1265,-0.1265,-0.1265,-0.1265,-0.1265,0,-0.0407,-0.0434,-0.0561,-0.059,-0.0671,-0.073,-0.0809,-0.0904,-0.0995,-0.1065,-0.1164,-0.1223,-0.1276,-0.129,-0.1297,-0.1249,-0.1291,-0.1191,-0.116,-0.1232,-0.1229,-0.118,-0.1171,-0.1264,-0.1264,-0.1265,-0.1265,0,-0.0356,-0.0424,-0.0508,-0.0636,-0.0668,-0.0751,-0.0826,-0.0886,-0.0977,-0.1055,-0.1109,-0.1197,-0.1233,-0.1252,-0.1263,-0.122,-0.1203,-0.1184,-0.1263,-0.1235,-0.1082,-0.1079,-0.1072,-0.107,-0.1067,-0.1066,-0.1064,0,-0.0333,-0.0376,-0.0552,-0.0613,-0.0676,-0.077,-0.0833,-0.0916,-0.096,-0.1058,-0.1087,-0.1148,-0.1208,-0.1135,-0.1181,-0.1165,-0.1161,-0.1132,-0.1115,-0.1095,-0.1067,-0.1067,-0.1068,-0.1061,-0.106,-0.1059,-0.1059,0,-0.03,-0.0387,-0.0491,-0.0638,-0.0721,-0.0761,-0.0846,-0.0857,-0.0958,-0.1005,-0.1065,-0.1095,-0.109,-0.1108,-0.1093,-0.1098,-0.1136,-0.1108,-0.1112,-0.1096,-0.1081,-0.1055,-0.1058,-0.1051,-0.1052,-0.1053,-0.1054,0,-0.0295,-0.0388,-0.0534,-0.0653,-0.0735,-0.0753,-0.079,-0.0827,-0.086,-0.0962,-0.1004,-0.1056,-0.112,-0.1076,-0.1093,-0.1059,-0.1027,-0.0985,-0.0995,-0.1003,-0.0994,-0.0966,-0.0884,0,0,0,0,0,-0.0275,-0.0369,-0.05,-0.0627,-0.0698,-0.0721,-0.0787,-0.0813,-0.0893,-0.0919,-0.0949,-0.0982,-0.0986,-0.1017,-0.0959,-0.1031,-0.1016,-0.0958,-0.0969,-0.101,-0.1019,-0.1015,0,0,0,0,0,0,-0.0266,-0.0389,-0.0499,-0.0556,-0.0608,-0.0647,-0.0689,-0.0749,-0.0747,-0.0845,-0.0847,-0.0914,-0.0919,-0.1,-0.0938,-0.0941,-0.0925,-0.099,-0.0987,-0.1005,-0.1013,-0.102,-0.1019,0,0,0,0,0]},{"header":{"parameterUnit":"m.s-1","parameterCategory":2,"la1":30.2991,"la2":30.254,"lo1":-89.0895,"lo2":-89.0444,"dy":0.0017,"dx":0.0017,"nx":28,"ny":28,"refTime":"2023-10-26T03:00:00:Z","depth":"4","parameterNumber":3,"parameterNumberName":"V-component_of_CURRENTS"},"data":[0,0,0,0,0,0,0,0,0,0,0,0,0,0,0,0,0,0,0,0,0,0,0,0,0,0,0,0,0,0,0,0,0,0,0,0,0,0,0,0,0,0,0,0,0,0,0,0,0,0,0,0,0,0,0,0,0,0,-0.0028,-0.0028,0,-0.0018,-0.0018,-0.0018,-0.0015,-0.0015,-0.0015,-0.0015,-0.0003,-0.0003,-0.0003,0,0,0,0,0,0,0,0,0,0,0,0,0,-0.0043,-0.0043,-0.0028,-0.0028,-0.0027,-0.0018,-0.0018,-0.0018,-0.0015,-0.0015,-0.0015,-0.0015,-0.0003,-0.0003,-0.0003,0,0,0,0,0,0,0,0,0,0,0,0,0,-0.0038,-0.0043,-0.0028,-0.0023,-0.0022,-0.0018,-0.0018,-0.0018,-0.0016,-0.0015,-0.0015,-0.0015,-0.0003,-0.0003,-0.0003,-0.0007,0,0,-0.0002,-0.0002,0,0,0,0,0,0,0,0,-0.0038,-0.0038,-0.0024,-0.0023,-0.0022,-0.0015,-0.0019,-0.0014,-0.0016,-0.0021,-0.0015,-0.0015,-0.0005,-0.0005,-0.0008,-0.0007,-0.0006,-0.0002,-0.0002,-0.0002,-0.0002,0,0,0,0,0,0,0,-0.0038,-0.0038,-0.0027,-0.0023,-0.0022,-0.002,-0.0019,-0.0018,-0.0017,-0.002,-0.002,-0.0014,-0.0005,-0.0008,-0.0007,-0.0006,-0.0002,-0.0002,-0.0002,-0.0002,-0.0004,-0.0004,0,0,0,0,0,0,-0.0034,-0.0038,-0.0027,-0.0026,-0.0026,-0.002,-0.0019,-0.002,-0.0017,-0.0016,-0.0014,-0.0014,-0.0008,-0.0008,-0.0007,-0.0007,-0.0002,-0.0002,-0.0002,-0.0004,-0.0004,-0.0004,0,0,0,0,0,0,-0.0035,-0.0034,-0.0027,-0.0029,-0.0028,-0.0019,-0.0021,-0.002,-0.0024,-0.0012,-0.0011,-0.0019,-0.0008,-0.0007,-0.0005,-0.0006,-0.0002,-0.0001,-0.0003,-0.0004,-0.0004,-0.001,0,0,0,0,0,0,-0.0036,-0.0034,-0.0036,-0.0029,-0.0028,-0.0029,-0.0021,-0.002,-0.0019,-0.0019,-0.0015,-0.0014,-0.0008,-0.0005,-0.0005,-0.0006,-0.0001,-0.0003,-0.0003,-0.0004,-0.0009,-0.001,-0.0011,0,0,0,0,0,-0.0036,-0.0043,-0.0036,-0.0034,-0.0029,-0.0029,-0.0029,-0.0023,-0.002,-0.0026,-0.0018,-0.0014,-0.0007,-0.0005,-0.0005,-0.0006,-0.0003,-0.0003,-0.0004,-0.0009,-0.001,-0.0011,0,0,0,0,0,0,-0.005,-0.0042,-0.0035,-0.0038,-0.0034,-0.0028,-0.0029,-0.0026,-0.0026,-0.0025,-0.0016,-0.0014,-0.0016,-0.001,-0.0008,-0.0008,-0.0004,-0.0005,-0.0009,-0.001,-0.001,-0.0012,-0.0001,0,0,0,0,0,-0.0052,-0.0055,-0.0045,-0.0048,-0.0044,-0.0037,-0.0036,-0.0034,-0.0031,-0.0031,-0.0025,-0.0019,-0.0018,-0.0013,-0.0014,-0.001,0.0007,-0.0011,-0.0011,-0.0012,-0.0013,0.0016,0.0018,-0.0005,-0.0005,-0.0005,0,0,-0.0057,-0.0052,-0.0054,-0.005,-0.0044,-0.0051,-0.0037,-0.0038,-0.0047,-0.0029,-0.0036,-0.0026,-0.002,-0.0018,-0.0018,-0.0011,0.0003,-0.0013,-0.0013,-0.0014,0.0016,0.0019,0.0021,-0.0005,-0.0005,-0.0005,0,0,-0.0071,-0.0063,-0.0072,-0.0071,-0.0064,-0.0062,-0.0063,-0.0058,-0.0058,-0.0062,-0.005,-0.0034,-0.0039,-0.0022,-0.0018,-0.0023,-0.0007,-0.0029,-0.0026,0.0002,0.0005,0.0007,0.0033,0.0038,-0.0022,-0.0022,-0.0022,0,-0.0079,-0.0087,-0.0075,-0.0083,-0.0086,-0.0069,-0.0084,-0.0081,-0.0077,-0.0077,-0.0068,-0.0053,-0.0039,-0.0028,-0.0025,-0.0023,-0.0008,-0.0022,0.0002,0.0005,0.0007,0.0034,0.0039,-0.0022,-0.0022,-0.0022,-0.0022,0,-0.0101,-0.0107,-0.0111,-0.0118,-0.0121,-0.013,-0.0123,-0.0125,-0.0119,-0.0112,-0.0102,-0.0072,-0.0059,-0.005,-0.0037,-0.0014,-0.001,-0.0007,0.0007,0.001,0.0037,0.0043,-0.0023,-0.0023,-0.0023,-0.0023,0,0,-0.0121,-0.0128,-0.0129,-0.0141,-0.0143,-0.0151,-0.0161,-0.0165,-0.0176,-0.0149,-0.0153,-0.0116,-0.0086,-0.0078,-0.0049,-0.0014,0.0027,-0.0001,0.0001,0.0028,0.0088,0.0094,0.0101,0.0034,0.0035,0.0036,0.0101,0,-0.0144,-0.0172,-0.0168,-0.0197,-0.0212,-0.0204,-0.0223,-0.0223,-0.0212,-0.021,-0.0158,-0.015,-0.0101,-0.0089,-0.0043,-0.0,0.0041,0.0009,0.0077,0.0079,0.0088,0.0107,0.0038,0.0105,0.0107,0.0107,0.0108,0,-0.0165,-0.0185,-0.0221,-0.0247,-0.0253,-0.0275,-0.0298,-0.0307,-0.0292,-0.0281,-0.0239,-0.0202,-0.0138,-0.0105,0.0,-0.0025,0.0034,0.0075,0.0079,0.009,0.0096,0.0101,0.0119,0.0118,0.0117,0.0116,0.0116,0,-0.019,-0.0218,-0.0252,-0.0261,-0.0291,-0.0314,-0.0332,-0.0335,-0.0338,-0.0319,-0.0301,-0.0237,-0.0187,-0.0112,0.0006,-0.0004,0.0116,0.011,0.0173,0.0174,0.0151,0.0148,0.0183,0.0183,0.0183,0.0183,0.0183,0,-0.0214,-0.0238,-0.0273,-0.0293,-0.0353,-0.0355,-0.0399,-0.0407,-0.0398,-0.0382,-0.033,-0.0281,-0.0184,-0.0093,-0.0009,0.0112,0.0114,0.0179,0.0194,0.0147,0.0142,0.0156,0.0152,0.0185,0.0185,0.0184,0.0184,0,-0.0234,-0.0247,-0.0298,-0.0347,-0.0367,-0.0413,-0.0445,-0.0462,-0.0444,-0.0416,-0.0401,-0.0308,-0.0189,-0.0085,0.0042,0.0104,0.0201,0.0245,0.0193,0.0203,0.0238,0.0233,0.03,0.03,0.0301,0.0302,0.0302,0,-0.0245,-0.0272,-0.0348,-0.0388,-0.0416,-0.0471,-0.0503,-0.05,-0.0486,-0.0408,-0.0379,-0.0272,-0.0193,-0.0003,0.0087,0.0225,0.025,0.0288,0.0258,0.0244,0.0252,0.0245,0.0239,0.0303,0.0304,0.0304,0.0304,0,-0.0275,-0.0306,-0.0352,-0.0443,-0.0492,-0.0527,-0.055,-0.0537,-0.0492,-0.0467,-0.0337,-0.0235,-0.0104,0.0016,0.0126,0.0228,0.0247,0.0295,0.0294,0.0266,0.0249,0.0255,0.0248,0.0306,0.0306,0.0306,0.0306,0,-0.0297,-0.0347,-0.0413,-0.0494,-0.0543,-0.0554,-0.057,-0.0521,-0.0497,-0.0383,-0.0336,-0.0196,-0.0117,0.0021,0.0129,0.0217,0.0228,0.0243,0.0244,0.0242,0.0202,0.017,0.0223,0,0,0,0,0,-0.0309,-0.0368,-0.0454,-0.0523,-0.0564,-0.0591,-0.058,-0.0569,-0.0504,-0.041,-0.0366,-0.0235,-0.0065,0.0008,0.0098,0.0113,0.0218,0.0217,0.0229,0.032,0.0317,0.0279,0,0,0,0,0,0,-0.0319,-0.0396,-0.0458,-0.052,-0.0562,-0.0592,-0.0584,-0.0548,-0.0478,-0.0402,-0.0308,-0.0232,-0.0074,-0.0119,0.0093,0.012,0.0136,0.0302,0.0303,0.0322,0.0319,0.0317,0.0277,0,0,0,0,0]}]]